Regional Weather Roundup
Issued by NWS

Home | Current Version | Previous Version | Text Only | Print | Product List | Glossary Off
Versions: 1 2 3 4 5 6 7 8 9 10 11 12 13 14 15 16 17 18 19 20 21 22 23 24 25 26 27 28 29 30 31 32 33 34 35 36 37 38 39 40 41 42 43 44 45 46 47 48 49 50

000
ASUS43 KLMK 180402
RWRKY
KENTUCKY REGIONAL WEATHER ROUNDUP
NATIONAL WEATHER SERVICE LOUISVILLE KY
1100 PM EST WED DEC 17 2014

NOTE "FAIR" INDICATES FEW OR NO CLOUDS BELOW 12,000 FEET
WITH NO SIGNIFICANT WEATHER AND/OR OBSTRUCTIONS TO VISIBILITY.

KYZ001>023-026-027-061>063-070>075-180500-
WESTERN AND SOUTH CENTRAL KENTUCKY

CITY           SKY/WX    TMP DP  RH WIND       PRES   REMARKS
PADUCAH        CLOUDY    36  28  73 E5        30.27R WCI  32
HENDERSON      MOCLDY    30  25  80 NE8       30.29R WCI  23
OWENSBORO      PTCLDY    31  25  78 NE6       30.29S WCI  25
HOPKINSVILLE   PTCLDY    31  26  81 NE5       30.27S WCI  26
BOWLING GREEN  PTCLDY    30  23  75 CALM      30.28S
GLASGOW        NOT AVBL
$$

KYZ024-025-028>034-038-045-046-053-180500-
NORTH CENTRAL KENTUCKY

CITY           SKY/WX    TMP DP  RH WIND       PRES   REMARKS
LOUISVILLE/SDF CLOUDY    31  23  72 N10       30.28S WCI  22
LOUISVILLE/LOU CLOUDY    31  23  72 NW5       30.28F WCI  26
FORT KNOX      CLOUDY    29  24  80 NW6       30.26S WCI  23
$$

KYZ035>037-039>044-047>052-055>060-089>105-180500-
NORTHEAST KENTUCKY

CITY           SKY/WX    TMP DP  RH WIND       PRES   REMARKS
LEXINGTON      CLOUDY    29  24  82 N7        30.25S WCI  22
COVINGTON      CLOUDY    28  19  69 NW12      30.26S WCI  18
FRANKFORT      CLOUDY    29  22  75 NW5       30.26R WCI  24
$$

KYZ054-064>069-076>088-106>120-180500-
SOUTHEAST KENTUCKY

CITY           SKY/WX    TMP DP  RH WIND       PRES   REMARKS
JACKSON        CLEAR     29  24  82 W3        30.21F
LONDON         CLEAR     29  24  82 CALM      30.23S
SOMERSET       NOT AVBL
MIDDLESBORO    NOT AVBL
MONTICELLO     CLEAR     24  22  92 CALM      30.27F
$$



USA.gov is the U.S. government's official web portal to all federal, state and local government web resources and services.